Weather History for EGPM - February, 2013

Change the Weather History Date:

Friday, February 22, 2013

  Actual Average Record
Temperature  
Mean Temperature 37 °F -  
Max Temperature 41 °F 42 °F 46 °F (2006)
Min Temperature 33 °F 36 °F 26 °F (2005)
Degree Days  
Heating Degree Days 28    
Moisture  
Dew Point 31 °F    
Average Humidity 81    
Maximum Humidity 93    
Minimum Humidity 65    
Precipitation  
Precipitation 0.00 in - - ()
Sea Level Pressure  
Sea Level Pressure 30.31 in    
Wind  
Wind Speed 7 mph ()    
Max Wind Speed 12 mph    
Max Gust Speed -    
Visibility 6.2 miles    
Events Rain    
Averages and records for this station are not official NWS values.
T = Trace of Precipitation, MM = Missing Value Source: Averaged Metar Reports

Daily Weather History Graph

Daily Weather History Graph

Search for Another Location

Airport or City:

Trip Planner

Search our weather history database for the weather conditions in past years. The results will help you decide how hot, cold, wet, or windy it might be!

Date:

Astronomy

Feb. 22, 2013 Rise Set
Actual Time 7:24 AM GMT 5:13 PM GMT
Civil Twilight 6:41 AM GMT 5:57 PM GMT
Nautical Twilight 5:52 AM GMT 6:46 PM GMT
Astronomical Twilight 5:03 AM GMT 7:35 PM GMT
Moon 1:35 PM GMT (2/22) 5:38 AM GMT (2/22)
Length of Visible Light 11h 15m
Length of Day
9h 49m
Waxing Gibbous, 89% of the Moon is Illuminated
Feb 22
Waxing Gibbous
Feb 25
Full
Mar 4
Last Quarter
Mar 11
New
Mar 19
First Quarter

Hourly Weather History & Observations

Time (GMT) Temp. Windchill Dew Point Humidity Pressure Visibility Wind Dir Wind Speed Gust Speed Precip Events Conditions
12:20 AM 37.4 °F 29.8 °F 32.0 °F 81% 30.30 in 6.2 mi South 11.5 mph - N/A Rain Rain
12:50 AM 35.6 °F 27.5 °F 32.0 °F 87% 30.30 in 5.0 mi South 11.5 mph - N/A Rain Rain
1:20 AM 35.6 °F 29.9 °F 32.0 °F 87% 30.30 in 6.2 mi SSE 6.9 mph - N/A   Mostly Cloudy
1:50 AM 35.6 °F 28.0 °F 32.0 °F 87% 30.30 in 6.2 mi SE 10.4 mph - N/A   Mostly Cloudy
2:20 AM 35.6 °F 27.5 °F 32.0 °F 87% 30.30 in 6.2 mi SSE 11.5 mph - N/A   Drizzle
2:50 AM 35.6 °F 31.7 °F 32.0 °F 87% 30.30 in 6.2 mi South 4.6 mph - N/A   Mostly Cloudy
3:20 AM 35.6 °F 31.7 °F 32.0 °F 87% 30.27 in 6.2 mi South 4.6 mph - N/A   Mostly Cloudy
3:50 AM 35.6 °F 28.6 °F 30.2 °F 81% 30.27 in 6.2 mi SSE 9.2 mph - N/A   Overcast
4:20 AM 35.6 °F 27.5 °F 32.0 °F 87% 30.27 in 6.2 mi SSE 11.5 mph - N/A   Mostly Cloudy
4:50 AM 35.6 °F 28.6 °F 32.0 °F 87% 30.27 in 6.2 mi SE 9.2 mph - N/A   Mostly Cloudy
5:20 AM 35.6 °F 27.5 °F 32.0 °F 87% 30.27 in 6.2 mi SE 11.5 mph - N/A   Drizzle
5:50 AM 35.6 °F 28.6 °F 32.0 °F 87% 30.30 in 6.2 mi South 9.2 mph - N/A   Mostly Cloudy
6:20 AM 35.6 °F 28.0 °F 32.0 °F 87% 30.30 in 6.2 mi South 10.4 mph - N/A   Mostly Cloudy
6:50 AM 35.6 °F 28.0 °F 32.0 °F 87% 30.30 in 6.2 mi South 10.4 mph - N/A   Mostly Cloudy
7:20 AM 35.6 °F 29.9 °F 32.0 °F 87% 30.30 in 6.2 mi South 6.9 mph - N/A   Mostly Cloudy
7:50 AM 35.6 °F 31.7 °F 32.0 °F 87% 30.30 in 6.2 mi SSE 4.6 mph - N/A   Mostly Cloudy
8:20 AM 37.4 °F 29.8 °F 28.4 °F 70% 30.30 in 6.2 mi South 11.5 mph - N/A   Mostly Cloudy
8:50 AM 39.2 °F 33.0 °F 32.0 °F 75% 30.30 in 6.2 mi South 9.2 mph - N/A   Mostly Cloudy
9:20 AM 37.4 °F 30.8 °F 30.2 °F 75% 30.30 in 6.2 mi South 9.2 mph - N/A   Mostly Cloudy
9:50 AM 37.4 °F 30.8 °F 30.2 °F 75% 30.30 in 6.2 mi SSE 9.2 mph - N/A   Mostly Cloudy
10:20 AM 37.4 °F 31.4 °F 30.2 °F 75% 30.30 in 6.2 mi SSE 8.1 mph - N/A   Mostly Cloudy
10:50 AM 41.0 °F 38.0 °F 32.0 °F 70% 30.30 in 6.2 mi SSE 4.6 mph - N/A   Mostly Cloudy
11:20 AM 41.0 °F 36.4 °F 32.0 °F 70% 30.30 in 6.2 mi SSE 6.9 mph - N/A   Mostly Cloudy
11:50 AM 39.2 °F 32.5 °F 32.0 °F 75% 30.30 in 6.2 mi SSE 10.4 mph - N/A   Mostly Cloudy
12:20 PM 37.4 °F 30.3 °F 32.0 °F 81% 30.30 in 6.2 mi SSE 10.4 mph - N/A   Mostly Cloudy
12:50 PM 39.2 °F 33.0 °F 32.0 °F 75% 30.30 in 6.2 mi SSE 9.2 mph - N/A   Mostly Cloudy
1:20 PM 39.2 °F 33.0 °F 32.0 °F 75% 30.30 in 6.2 mi SSE 9.2 mph - N/A   Mostly Cloudy
1:50 PM 39.2 °F 33.6 °F 30.2 °F 70% 30.30 in 6.2 mi SSE 8.1 mph - N/A   Mostly Cloudy
2:20 PM 39.2 °F 33.6 °F 30.2 °F 70% 30.30 in 6.2 mi South 8.1 mph - N/A   Mostly Cloudy
2:50 PM 39.2 °F 33.0 °F 30.2 °F 70% 30.30 in 6.2 mi South 9.2 mph - N/A   Mostly Cloudy
3:20 PM 39.2 °F 34.2 °F 28.4 °F 65% 30.30 in 6.2 mi SSW 6.9 mph - N/A   Mostly Cloudy
3:50 PM 37.4 °F 32.1 °F 28.4 °F 70% 30.30 in 6.2 mi SSW 6.9 mph - N/A   Mostly Cloudy
4:20 PM 37.4 °F 33.8 °F 32.0 °F 81% 30.30 in 6.2 mi South 4.6 mph - N/A   Mostly Cloudy
4:50 PM 37.4 °F 32.8 °F 30.2 °F 75% 30.30 in 6.2 mi South 5.8 mph - N/A   Mostly Cloudy
5:20 PM 35.6 °F - 30.2 °F 81% 30.30 in 6.2 mi SSE 2.3 mph - N/A   Mostly Cloudy
5:50 PM 35.6 °F - 30.2 °F 81% 30.33 in 6.2 mi NE 1.2 mph - N/A   Mostly Cloudy
6:20 PM 35.6 °F - 30.2 °F 81% 30.33 in 6.2 mi South 2.3 mph - N/A   Mostly Cloudy
6:50 PM 35.6 °F - 30.2 °F 81% 30.33 in 6.2 mi Calm Calm - N/A   Mostly Cloudy
7:20 PM 35.6 °F - 30.2 °F 81% 30.33 in 6.2 mi SSE 2.3 mph - N/A   Scattered Clouds
7:50 PM 35.6 °F - 30.2 °F 81% 30.33 in 6.2 mi South 2.3 mph - N/A   Scattered Clouds
8:20 PM 33.8 °F 30.8 °F 30.2 °F 87% 30.33 in 6.2 mi ESE 3.5 mph - N/A   Scattered Clouds
8:50 PM 35.6 °F - 32.0 °F 87% 30.33 in 6.2 mi SSW 1.2 mph - N/A   Overcast
9:20 PM 33.8 °F - 30.2 °F 87% 30.33 in 6.2 mi ESE 1.2 mph - N/A   Mostly Cloudy
9:50 PM 35.6 °F - 32.0 °F 87% 30.33 in 6.2 mi SSE 1.2 mph - N/A   Mostly Cloudy
10:20 PM 33.8 °F - 32.0 °F 93% 30.33 in 6.2 mi ESE 1.2 mph - N/A   Overcast
10:50 PM 33.8 °F 30.8 °F 32.0 °F 93% 30.33 in 6.2 mi ESE 3.5 mph - N/A   Overcast
11:20 PM 35.6 °F 31.7 °F 32.0 °F 87% 30.33 in 6.2 mi ENE 4.6 mph - N/A   Mostly Cloudy
11:50 PM 35.6 °F 29.9 °F 33.8 °F 93% 30.36 in 6.2 mi East 6.9 mph - N/A Rain Light Rain